Back to catalog

LT-1 01A

AliveScienceSSO
NORAD 51284·PAYLOAD·🇨🇳 China

Launched Jan 25, 2022 from Jiuquan Satellite Launch Center

Loading…

Next Passes (next 24 hours)

TLE

FreshSource: Space-Track

Epoch: Sep 14, 2026, 14:13 UTC

1 51284U 22007A   26257.59295519  .00000398  00000-0  48819-4 0  9992
2 51284  97.8111 263.7481 0001592  90.2509 269.8890 14.88420086251777

Track LT-1 01A in real time with AllMySat

Download on the App Store